This is the latest recevied weather packets stored in our database for station/object KA0WKG. If no packets are shown the sender has not sent any weather packets the latest 10 day(s).
| Time | Temp. | Humidity | Pressure | Rain* | Wind** | Luminosity | Snow |
|---|---|---|---|---|---|---|---|
| 1778061905 | 3.89° C | 97% | 1017.1 hPa | 0 mm | - | - | - |
| 1778061004 | 3.89° C | 97% | 1017 hPa | 0 mm | - | - | - |
| 1778058305 | 3.33° C | 96% | 1016.6 hPa | 0 mm | - | - | - |
| 1778053805 | 3.33° C | 96% | 1016.7 hPa | 0.25 mm | - | - | - |
| 1778052904 | 3.33° C | 96% | 1016.6 hPa | 0.25 mm | - | - | - |
| 1778042408 | 3.33° C | 96% | 1016.4 hPa | 0.51 mm | - | - | - |
| 1778036409 | 3.89° C | 96% | 1015.6 hPa | 0.51 mm | - | - | - |
| 1778035208 | 3.89° C | 96% | 1015.4 hPa | 0.25 mm | - | - | - |
| 1778032207 | 3.33° C | 95% | 1015 hPa | 1.02 mm | - | - | - |
| 1778031607 | 3.33° C | 96% | 1015 hPa | 1.52 mm | - | - | - |
| 1778030108 | 3.89° C | 95% | 1014.7 hPa | 1.78 mm | - | - | - |
| 1778028008 | 4.44° C | 94% | 1014.4 hPa | 1.52 mm | - | - | - |
| 1778027707 | 4.44° C | 94% | 1014.4 hPa | 1.52 mm | - | - | - |
| 1778025308 | 4.44° C | 93% | 1014 hPa | 1.02 mm | - | - | - |
| 1778022607 | 5° C | 92% | 1013.8 hPa | 1.02 mm | - | - | - |
| 1778022307 | 5° C | 94% | 1013.7 hPa | 1.02 mm | - | - | - |
| 1778020808 | 5° C | 93% | 1013.7 hPa | 0.51 mm | - | - | - |
| 1778019307 | 5° C | 92% | 1013.9 hPa | 0.76 mm | - | - | - |
| 1778019008 | 5° C | 92% | 1014 hPa | 0.51 mm | - | - | - |
| 1778017207 | 5° C | 92% | 1013.9 hPa | 0.51 mm | - | - | - |
| 1778016607 | 5° C | 94% | 1013.9 hPa | 0.51 mm | - | - | - |
| 1778016007 | 5° C | 93% | 1013.9 hPa | 0.51 mm | - | - | - |
| 1778011806 | 5° C | 95% | 1014.5 hPa | 1.27 mm | - | - | - |
| 1778010906 | 5° C | 95% | 1014.7 hPa | 0.76 mm | - | - | - |
| 1778007306 | 5° C | 94% | 1014.8 hPa | 1.02 mm | - | - | - |
* Rain latest hour (hover to see other rain measurements)
** Current wind speed in m/s (hover to see current wind gust speed)